Regional Weather Roundup
Issued by NWS New Orleans/Baton Rouge, LA

Home | Current Version | Previous Version | Text Only | Print | Product List | Glossary On
Versions: 1 2 3 4 5 6 7 8 9 10 11 12 13 14 15 16 17 18 19 20 21 22 23 24 25 26 27 28 29 30 31 32 33 34 35 36 37 38 39 40 41 42 43 44 45 46 47 48 49 50
115
ASUS44 KLIX 241013
RWRLIX
NEW ORLEANS REGIONAL WEATHER ROUNDUP
NATIONAL WEATHER SERVICE NEW ORLEANS LA
400 AM CST TUE JAN 24 2017

NOTE: "FAIR" INDICATES FEW OR NO CLOUDS BELOW 12,000 FEET WITH NO
      SIGNIFICANT WEATHER AND/OR OBSTRUCTIONS TO VISIBILITY.
      SKY/WX - SKY CONDITION AND SIGNIFICANT WEATHER.
      TMP - AIR TEMPERATURE.     DP    - DEWPOINT TEMPERATURE.
      RH  - RELATIVE HUMIDITY.   PRES  - PRESSURE.
      HI  - HEAT INDEX.          WCI   - WIND CHILL INDEX.

*  THESE STATIONS ARE NOT NWS OR FAA STATIONS AND ARE NOT UNDER
   NWS QUALITY CONTROL.

LAZ038-040-048-061>063-065>067-069-241100-
SOUTHEAST LOUISIANA

CITY           SKY/WX    TMP DP  RH WIND       PRES   REMARKS
N.O. AUDUBON   NOT AVBL
N.O. INTL ARPT CLEAR     48  46  93 CALM      29.91R
N.O. LAKEFRONT CLEAR     58  50  75 NW6       29.91S
N.O. DOWNTOWN*   N/A     55  46  71 CALM      29.91S
RESERVE*         N/A     49  47  93 CALM      29.91S FOG
SLIDELL        CLEAR     43  41  93 CALM      29.90F
BATON ROUGE    CLEAR     43  41  93 CALM      29.90F
BOOTHVILLE     CLEAR     50  48  93 W5        29.92R
BELLE CHASSE   CLEAR     45  44  97 CALM      29.90S
BOGALUSA*        N/A     43  41  91 CALM      29.93S
GALLIANO*      SUNNY     44  42  92 CALM      29.91S
NEW ROADS*       N/A     43  43 100 CALM      29.90S
GONZALES*        N/A     44  44  98 CALM      29.90S
HAMMOND*       CLEAR     41  39  93 CALM      29.91S
HOUMA*         FOG       45  45 100 CALM      29.90F VSB<1/4
PORT FOURCHON* SUNNY     57  52  82 CALM      29.91S

$$

MSZ070-080>082-241100-
SOUTHERN MISSISSIPPI

CITY           SKY/WX    TMP DP  RH WIND       PRES   REMARKS
MCCOMB         CLEAR     44  40  85 CALM      29.90F
GULFPORT       CLEAR     48  44  86 N5        29.91S
BILOXI         CLEAR     48  44  88 N6        29.90F
PASCAGOULA     CLEAR     45  41  86 N6        29.91S

$$

COASTAL OBSERVATIONS
LAKE AND NEARSHORE STATIONS

STATION/POSITION TIME  TEMP    WIND        PRES    WAVE
                       AIR SEA DIR/SP/G            HT/PER
                 (UTC) (F)     (DEG/KT/KT) (MB)    (FT/S)
PASCAGOULA       0942   49     360/  8/ 11 1012.2
WAVELAND YACHT   0942   51 61   10/  8/ 10 1012.9
GRAND ISLE       0942   60 64  290/  7/  8 1012.7
SOUTHWEST PASS   0942          360/  7/  7   N/A
NEW CANAL        0942   56 60   CALM  /  1 1011.7
SHELL BEACH      0942   58 63  300/  4/  5 1012.7

OFFSHORE STATIONS

STATION/POSITION TIME  TEMP    WIND        PRES    WAVE
                       AIR SEA DIR/SP/G            HT/PER
                 (UTC) (F)     (DEG/KT/KT) (MB)    (FT/S)

$$





USA.gov is the U.S. government's official web portal to all federal, state and local government web resources and services.